Torna al catalogo

STARLINK-37273

AttivoComunicazioniVLEO
NORAD 68723·PAYLOAD·🇺🇸 United States

Lanciato Apr 14, 2026 da Cape Canaveral Space Force Station

Loading…

Prossimi Passaggi (prossime 24 ore)

TLE

AggiornatoSource: CelesTrak SupGP

Epoca: Sep 15, 2026, 03:38 UTC

1 68723C 26081AA  26258.15187500 -.00037429  00000+0 -11059-2 0  2585
2 68723  53.1584 230.6063 0001437  83.6429 111.4643 15.34407488    16

Traccia STARLINK-37273 in tempo reale con AllMySat

Download on the App Store